Wetterdaten: Mittwoch, 25.01.2023
Datum Zeit Außen Temp. Server Temp. +20m Feuchte Feuchte +20m Luftdruck Regen Wind Richtung Richtung Sonnenschein Helligkeit Solar Taupunkt
25.01.2023 00:00 -1,3 °C 3,5 °C -2,7 °C 86 % 58 % 1039,1 hPa 0,00 l/m² 16,5 km/h (3 Bft) O-NO±22.5 75 ° 0 min 0 lux 0 W/m² -3,3 °C
25.01.2023 00:15 -1,4 °C 3,5 °C -2,8 °C 86 % 58 % 1039,1 hPa 0,00 l/m² 20,6 km/h (4 Bft) O-NO±22.5 70 ° 0 min 0 lux 0 W/m² -3,4 °C
25.01.2023 00:30 -1,7 °C 3,5 °C -3,2 °C 86 % 59 % 1039,1 hPa 0,00 l/m² 20,3 km/h (4 Bft) O-NO±22.5 70 ° 0 min 0 lux 0 W/m² -3,7 °C
25.01.2023 00:45 -2,0 °C 3,3 °C -3,3 °C 86 % 58 % 1039,1 hPa 0,00 l/m² 29,7 km/h (5 Bft) O-NO±22.5 70 ° 0 min 0 lux 0 W/m² -4,0 °C
25.01.2023 01:00 -1,9 °C 3,2 °C -3,3 °C 86 % 58 % 1039,1 hPa 0,00 l/m² 24,9 km/h (4 Bft) O-NO±22.5 70 ° 0 min 0 lux 0 W/m² -3,9 °C
25.01.2023 01:15 -2,0 °C 3,1 °C -3,4 °C 86 % 57 % 1039,1 hPa 0,00 l/m² 24,3 km/h (4 Bft) O±22.5° 80 ° 0 min 0 lux 0 W/m² -4,0 °C
25.01.2023 01:30 -2,1 °C 3,1 °C -3,5 °C 86 % 57 % 1039,2 hPa 0,00 l/m² 23,1 km/h (4 Bft) O-NO±22.5 75 ° 0 min 0 lux 0 W/m² -4,1 °C
25.01.2023 01:45 -2,1 °C 3,0 °C -3,6 °C 87 % 59 % 1039,2 hPa 0,00 l/m² 25,7 km/h (4 Bft) O-NO±22.5 75 ° 0 min 0 lux 0 W/m² -4,0 °C
25.01.2023 02:00 -2,1 °C 2,9 °C -3,4 °C 87 % 62 % 1039,2 hPa 0,00 l/m² 25,8 km/h (4 Bft) O-NO±22.5 75 ° 0 min 0 lux 0 W/m² -4,0 °C
25.01.2023 02:15 -2,0 °C 2,9 °C -3,3 °C 87 % 64 % 1039,1 hPa 0,00 l/m² 21,4 km/h (4 Bft) O-NO±22.5 75 ° 0 min 0 lux 0 W/m² -3,9 °C
25.01.2023 02:30 -1,9 °C 2,8 °C -3,2 °C 87 % 67 % 1039,1 hPa 0,00 l/m² 22,2 km/h (4 Bft) O-NO±22.5 70 ° 0 min 0 lux 0 W/m² -3,8 °C
25.01.2023 02:45 -1,8 °C 2,8 °C -3,1 °C 87 % 69 % 1038,1 hPa 0,00 l/m² 22,0 km/h (4 Bft) O-NO±22.5 75 ° 0 min 0 lux 0 W/m² -3,7 °C
25.01.2023 03:00 -1,7 °C 2,8 °C -3,1 °C 87 % 70 % 1038,1 hPa 0,00 l/m² 24,8 km/h (4 Bft) O-NO±22.5 75 ° 0 min 0 lux 0 W/m² -3,6 °C
25.01.2023 03:15 -1,8 °C 2,8 °C -3,2 °C 87 % 71 % 1038,1 hPa 0,00 l/m² 22,7 km/h (4 Bft) O-NO±22.5 75 ° 0 min 0 lux 0 W/m² -3,7 °C
25.01.2023 03:30 -1,7 °C 2,8 °C -3,0 °C 87 % 72 % 1038,1 hPa 0,00 l/m² 18,3 km/h (3 Bft) O-NO±22.5 75 ° 0 min 0 lux 0 W/m² -3,6 °C
25.01.2023 03:45 -1,7 °C 2,8 °C -3,1 °C 87 % 72 % 1038,1 hPa 0,00 l/m² 16,6 km/h (3 Bft) O±45° 80 ° 0 min 0 lux 0 W/m² -3,6 °C
25.01.2023 04:00 -1,6 °C 2,9 °C -2,9 °C 87 % 73 % 1038,1 hPa 0,00 l/m² 11,1 km/h (2 Bft) O±22.5° 80 ° 0 min 0 lux 0 W/m² -3,5 °C
25.01.2023 04:15 -1,4 °C 2,9 °C -2,8 °C 87 % 73 % 1038,0 hPa 0,00 l/m² 8,9 km/h (2 Bft) O±22.5° 80 ° 0 min 0 lux 0 W/m² -3,3 °C
25.01.2023 04:30 -1,6 °C 2,9 °C -3,1 °C 87 % 70 % 1037,0 hPa 0,00 l/m² 15,5 km/h (3 Bft) O-NO±45° 75 ° 0 min 0 lux 0 W/m² -3,5 °C
25.01.2023 04:45 -1,9 °C 3,0 °C -3,3 °C 87 % 69 % 1037,1 hPa 0,00 l/m² 17,8 km/h (3 Bft) O±22.5° 80 ° 0 min 0 lux 0 W/m² -3,8 °C
25.01.2023 05:00 -2,1 °C 2,9 °C -3,7 °C 86 % 66 % 1037,1 hPa 0,00 l/m² 22,4 km/h (4 Bft) O-NO±22.5 75 ° 0 min 0 lux 0 W/m² -4,1 °C
25.01.2023 05:15 -2,2 °C 2,9 °C -3,8 °C 86 % 65 % 1037,1 hPa 0,00 l/m² 22,3 km/h (4 Bft) O-NO±22.5 75 ° 0 min 0 lux 0 W/m² -4,2 °C
25.01.2023 05:30 -2,4 °C 2,7 °C -3,9 °C 86 % 63 % 1037,1 hPa 0,00 l/m² 23,5 km/h (4 Bft) O-NO±22.5 70 ° 0 min 0 lux 0 W/m² -4,4 °C
25.01.2023 05:45 -2,4 °C 2,6 °C -3,9 °C 87 % 63 % 1037,1 hPa 0,00 l/m² 24,5 km/h (4 Bft) O-NO±45° 65 ° 0 min 0 lux 0 W/m² -4,3 °C
25.01.2023 06:00 -2,3 °C 2,6 °C -3,8 °C 87 % 65 % 1037,1 hPa 0,00 l/m² 21,6 km/h (4 Bft) O-NO±22.5 70 ° 0 min 0 lux 0 W/m² -4,2 °C
25.01.2023 06:15 -2,3 °C 2,5 °C -3,8 °C 87 % 68 % 1037,1 hPa 0,00 l/m² 21,8 km/h (4 Bft) O-NO±45° 70 ° 0 min 0 lux 0 W/m² -4,2 °C
25.01.2023 06:30 -2,3 °C 2,5 °C -3,8 °C 87 % 71 % 1037,1 hPa 0,00 l/m² 22,2 km/h (4 Bft) O±22.5° 80 ° 0 min 0 lux 0 W/m² -4,2 °C
25.01.2023 06:45 -2,4 °C 2,5 °C -3,9 °C 87 % 73 % 1037,1 hPa 0,00 l/m² 19,8 km/h (3 Bft) O±22.5° 85 ° 0 min 0 lux 0 W/m² -4,3 °C
25.01.2023 07:00 -2,5 °C 2,5 °C -3,9 °C 87 % 74 % 1037,1 hPa 0,00 l/m² 19,5 km/h (3 Bft) O-NO±45° 70 ° 0 min 0 lux 0 W/m² -4,4 °C
25.01.2023 07:15 -2,3 °C 2,5 °C -3,9 °C 87 % 74 % 1037,1 hPa 0,00 l/m² 14,0 km/h (3 Bft) O-NO±22.5 70 ° 0 min 0 lux 0 W/m² -4,2 °C
25.01.2023 07:30 -2,5 °C 2,5 °C -4,1 °C 87 % 73 % 1037,1 hPa 0,00 l/m² 16,1 km/h (3 Bft) O-NO±22.5 70 ° 0 min 0 lux 0 W/m² -4,4 °C
25.01.2023 07:45 -2,5 °C 2,6 °C -4,1 °C 87 % 72 % 1037,1 hPa 0,00 l/m² 16,5 km/h (3 Bft) O-NO±22.5 75 ° 0 min 0 lux 0 W/m² -4,4 °C
25.01.2023 08:00 -2,5 °C 2,6 °C -4,1 °C 87 % 71 % 1037,1 hPa 0,00 l/m² 16,2 km/h (3 Bft) O-NO±22.5 75 ° 0 min 65 lux 0 W/m² -4,4 °C
25.01.2023 08:15 -2,4 °C 2,5 °C -4,0 °C 87 % 69 % 1036,1 hPa 0,00 l/m² 13,5 km/h (3 Bft) O±45° 80 ° 0 min 217 lux 1 W/m² -4,3 °C
25.01.2023 08:30 -2,4 °C 2,6 °C -4,0 °C 86 % 66 % 1036,1 hPa 0,00 l/m² 13,8 km/h (3 Bft) O±22.5° 80 ° 0 min 484 lux 3 W/m² -4,4 °C
25.01.2023 08:45 -2,2 °C 2,6 °C -3,9 °C 86 % 64 % 1036,1 hPa 0,00 l/m² 11,3 km/h (2 Bft) O-NO±22.5 75 ° 0 min 841 lux 5 W/m² -4,2 °C
25.01.2023 09:00 -2,1 °C 2,6 °C -3,8 °C 85 % 61 % 1036,1 hPa 0,00 l/m² 12,8 km/h (3 Bft) O-NO±22.5 75 ° 0 min 1,31 klux 9 W/m² -4,3 °C
25.01.2023 09:15 -2,1 °C 2,6 °C -3,7 °C 85 % 59 % 1036,1 hPa 0,00 l/m² 9,0 km/h (2 Bft) O±22.5° 80 ° 0 min 1,76 klux 11 W/m² -4,3 °C
25.01.2023 09:30 -2,0 °C 2,6 °C -3,6 °C 85 % 58 % 1036,0 hPa 0,00 l/m² 10,3 km/h (2 Bft) O-NO±22.5 70 ° 0 min 2,08 klux 14 W/m² -4,2 °C
25.01.2023 09:45 -1,9 °C 2,6 °C -3,7 °C 85 % 57 % 1036,0 hPa 0,00 l/m² 13,3 km/h (3 Bft) O±22.5° 80 ° 0 min 2,39 klux 16 W/m² -4,1 °C
25.01.2023 10:01 -1,9 °C 2,6 °C -3,4 °C 86 % 58 % 1036,0 hPa 0,00 l/m² 13,9 km/h (3 Bft) O±22.5° 80 ° 0 min 3,18 klux 21 W/m² -3,9 °C
25.01.2023 10:15 -1,7 °C 2,6 °C -3,2 °C 86 % 59 % 1036,0 hPa 0,00 l/m² 15,6 km/h (3 Bft) O±22.5° 85 ° 0 min 3,99 klux 26 W/m² -3,7 °C
25.01.2023 10:30 -1,4 °C 2,6 °C -2,9 °C 87 % 61 % 1036,0 hPa 0,00 l/m² 12,2 km/h (2 Bft) O±22.5° 85 ° 0 min 4,39 klux 29 W/m² -3,3 °C
25.01.2023 10:45 -1,1 °C 2,6 °C -2,4 °C 87 % 63 % 1035,9 hPa 0,00 l/m² 8,6 km/h (2 Bft) O±22.5° 85 ° 0 min 4,73 klux 31 W/m² -3,0 °C
25.01.2023 11:00 -0,9 °C 2,6 °C -2,4 °C 87 % 63 % 1035,9 hPa 0,00 l/m² 7,8 km/h (2 Bft) O±22.5° 80 ° 0 min 4,89 klux 32 W/m² -2,8 °C
25.01.2023 11:15 -0,7 °C 2,6 °C -2,0 °C 87 % 67 % 1034,9 hPa 0,00 l/m² 5,6 km/h (1 Bft) O±22.5° 80 ° 0 min 5,02 klux 33 W/m² -2,6 °C
25.01.2023 11:30 -0,3 °C 2,6 °C -1,2 °C 87 % 71 % 1034,8 hPa 0,00 l/m² 4,7 km/h (1 Bft) O 80 ° 0 min 5,30 klux 35 W/m² -2,2 °C
25.01.2023 11:45 0,1 °C 2,7 °C -1,0 °C 87 % 71 % 1034,8 hPa 0,00 l/m² 5,7 km/h (1 Bft) S±22.5° 185 ° 0 min 5,32 klux 35 W/m² -1,8 °C
25.01.2023 12:00 -0,1 °C 2,7 °C -0,9 °C 86 % 72 % 1034,8 hPa 0,00 l/m² 8,9 km/h (2 Bft) S-SW±22.5 195 ° 0 min 5,94 klux 39 W/m² -2,2 °C
25.01.2023 12:15 -0,1 °C 2,7 °C -0,8 °C 86 % 73 % 1034,8 hPa 0,00 l/m² 3,8 km/h (1 Bft) S-SW 210 ° 0 min 6,15 klux 40 W/m² -2,2 °C
25.01.2023 12:30 0,2 °C 2,7 °C -0,8 °C 87 % 72 % 1033,7 hPa 0,00 l/m² 9,6 km/h (2 Bft) S-SO±45° 165 ° 0 min 6,32 klux 41 W/m² -1,7 °C
25.01.2023 12:45 -0,1 °C 2,7 °C -0,9 °C 86 % 72 % 1033,8 hPa 0,00 l/m² 9,4 km/h (2 Bft) SO±22.5° 140 ° 0 min 5,67 klux 37 W/m² -2,2 °C
25.01.2023 13:00 0,2 °C 2,7 °C -0,7 °C 87 % 73 % 1033,7 hPa 0,00 l/m² 4,4 km/h (1 Bft) S-SW±45° 200 ° 0 min 6,54 klux 43 W/m² -1,7 °C
25.01.2023 13:15 0,1 °C 2,7 °C -0,9 °C 87 % 73 % 1032,7 hPa 0,00 l/m² 8,5 km/h (2 Bft) S±22.5° 185 ° 0 min 6,79 klux 44 W/m² -1,8 °C
25.01.2023 13:30 0,1 °C 2,8 °C -0,8 °C 87 % 74 % 1032,7 hPa 0,00 l/m² 3,3 km/h (1 Bft) SW±45° 220 ° 0 min 6,38 klux 42 W/m² -1,8 °C
25.01.2023 13:45 -0,1 °C 2,7 °C -0,7 °C 86 % 74 % 1032,7 hPa 0,00 l/m² 5,9 km/h (2 Bft) S-SW±45° 200 ° 0 min 5,93 klux 39 W/m² -2,2 °C
25.01.2023 14:00 -0,1 °C 2,8 °C -1,0 °C 86 % 72 % 1032,7 hPa 0,00 l/m² 5,6 km/h (1 Bft) S-SW±45° 200 ° 0 min 5,14 klux 33 W/m² -2,2 °C
25.01.2023 14:15 -0,2 °C 2,8 °C -1,1 °C 86 % 73 % 1031,7 hPa 0,00 l/m² 5,4 km/h (1 Bft) S±22.5° 185 ° 0 min 4,91 klux 32 W/m² -2,3 °C
25.01.2023 14:30 -0,3 °C 2,8 °C -1,3 °C 86 % 74 % 1031,7 hPa 0,00 l/m² 8,6 km/h (2 Bft) S±22.5° 170 ° 0 min 4,54 klux 30 W/m² -2,3 °C
25.01.2023 14:45 -0,3 °C 2,8 °C -1,5 °C 86 % 75 % 1031,7 hPa 0,00 l/m² 7,8 km/h (2 Bft) S-SW±45° 195 ° 0 min 4,27 klux 28 W/m² -2,3 °C
25.01.2023 15:00 -0,4 °C 2,8 °C -1,5 °C 86 % 76 % 1031,7 hPa 0,00 l/m² 9,6 km/h (2 Bft) S-SW±45° 195 ° 0 min 4,08 klux 27 W/m² -2,4 °C
25.01.2023 15:15 -0,5 °C 2,8 °C -1,6 °C 86 % 77 % 1030,7 hPa 0,00 l/m² 11,1 km/h (2 Bft) S±22.5° 175 ° 0 min 2,84 klux 19 W/m² -2,5 °C
25.01.2023 15:30 -0,5 °C 2,8 °C -1,6 °C 86 % 78 % 1030,7 hPa 0,00 l/m² 8,3 km/h (2 Bft) S±45° 185 ° 0 min 2,63 klux 17 W/m² -2,5 °C
25.01.2023 15:45 -0,6 °C 2,8 °C -1,7 °C 85 % 79 % 1030,7 hPa 0,00 l/m² 9,4 km/h (2 Bft) SO±22.5° 135 ° 0 min 2,05 klux 13 W/m² -2,8 °C
25.01.2023 16:00 -0,6 °C 2,8 °C -1,7 °C 85 % 80 % 1030,7 hPa 0,00 l/m² 8,7 km/h (2 Bft) SO±22.5° 140 ° 0 min 1,71 klux 11 W/m² -2,8 °C
25.01.2023 16:15 -0,5 °C 2,8 °C -1,7 °C 85 % 81 % 1030,7 hPa 0,00 l/m² 6,6 km/h (2 Bft) SO±45° 125 ° 0 min 1,42 klux 9 W/m² -2,7 °C
25.01.2023 16:30 -0,7 °C 2,8 °C -1,8 °C 85 % 81 % 1030,7 hPa 0,00 l/m² 8,6 km/h (2 Bft) SO±45° 140 ° 0 min 977 lux 6 W/m² -2,9 °C
25.01.2023 16:45 -0,7 °C 2,8 °C -2,1 °C 85 % 82 % 1030,7 hPa 0,00 l/m² 7,5 km/h (2 Bft) S±22.5° 170 ° 0 min 459 lux 3 W/m² -2,9 °C
25.01.2023 17:00 -0,7 °C 2,7 °C -1,8 °C 85 % 83 % 1029,7 hPa 0,00 l/m² 7,6 km/h (2 Bft) S-SO±22.5 160 ° 0 min 229 lux 0 W/m² -2,9 °C
25.01.2023 17:15 -0,8 °C 2,7 °C -2,2 °C 85 % 84 % 1029,7 hPa 0,00 l/m² 7,2 km/h (2 Bft) S±22.5° 170 ° 0 min 89 lux 0 W/m² -3,0 °C
25.01.2023 17:30 -0,7 °C 2,7 °C -2,1 °C 85 % 85 % 1029,7 hPa 0,00 l/m² 3,5 km/h (1 Bft) SO 125 ° 0 min 13 lux 0 W/m² -2,9 °C
25.01.2023 17:45 -0,9 °C 2,7 °C -2,2 °C 85 % 85 % 1029,7 hPa 0,00 l/m² 8,7 km/h (2 Bft) W-NW±22.5 300 ° 0 min 0 lux 0 W/m² -3,1 °C
25.01.2023 18:00 -1,0 °C 2,7 °C -2,4 °C 85 % 85 % 1029,7 hPa 0,00 l/m² 5,1 km/h (1 Bft) SO±45° 135 ° 0 min 0 lux 0 W/m² -3,2 °C
25.01.2023 18:15 -0,9 °C 2,7 °C -2,2 °C 85 % 86 % 1029,7 hPa 0,00 l/m² 3,3 km/h (1 Bft) O-SO±22.5 115 ° 0 min 0 lux 0 W/m² -3,1 °C
25.01.2023 18:30 -1,0 °C 2,7 °C -2,3 °C 85 % 86 % 1029,7 hPa 0,00 l/m² 4,3 km/h (1 Bft) S-SO 150 ° 0 min 0 lux 0 W/m² -3,2 °C
25.01.2023 18:45 -1,0 °C 2,7 °C -2,3 °C 85 % 87 % 1029,7 hPa 0,00 l/m² 5,2 km/h (1 Bft) W±22.5° 265 ° 0 min 0 lux 0 W/m² -3,2 °C
25.01.2023 19:00 -1,2 °C 2,7 °C -2,4 °C 85 % 87 % 1029,8 hPa 0,00 l/m² 9,4 km/h (2 Bft) W±22.5° 275 ° 0 min 0 lux 0 W/m² -3,4 °C
25.01.2023 19:15 -1,0 °C 2,7 °C -2,4 °C 85 % 87 % 1028,7 hPa 0,00 l/m² 3,2 km/h (1 Bft) W-SW 245 ° 0 min 0 lux 0 W/m² -3,2 °C
25.01.2023 19:30 -1,1 °C 2,7 °C -2,4 °C 85 % 87 % 1028,7 hPa 0,00 l/m² 6,8 km/h (2 Bft) O-SO±22.5 110 ° 0 min 0 lux 0 W/m² -3,3 °C
25.01.2023 19:45 -1,1 °C 2,6 °C -2,5 °C 85 % 88 % 1028,7 hPa 0,00 l/m² 3,9 km/h (1 Bft) S-SO 165 ° 0 min 0 lux 0 W/m² -3,3 °C
25.01.2023 20:00 -1,1 °C 2,7 °C -2,4 °C 85 % 88 % 1028,7 hPa 0,00 l/m² 5,7 km/h (1 Bft) SO 140 ° 0 min 0 lux 0 W/m² -3,3 °C
25.01.2023 20:15 -1,1 °C 2,6 °C -2,4 °C 85 % 88 % 1028,7 hPa 0,00 l/m² 4,4 km/h (1 Bft) S-SO±22.5 165 ° 0 min 0 lux 0 W/m² -3,3 °C
25.01.2023 20:30 -1,1 °C 2,6 °C -2,1 °C 85 % 89 % 1028,7 hPa 0,00 l/m² 0,3 km/h (0 Bft) S 185 ° 0 min 0 lux 0 W/m² -3,3 °C
25.01.2023 20:45 -1,1 °C 2,6 °C -2,5 °C 85 % 89 % 1028,7 hPa 0,00 l/m² 6,1 km/h (2 Bft) W-NW±22.5 295 ° 0 min 0 lux 0 W/m² -3,3 °C
25.01.2023 21:00 -1,3 °C 2,6 °C -2,7 °C 85 % 89 % 1028,7 hPa 0,00 l/m² 8,8 km/h (2 Bft) NW±22.5° 320 ° 0 min 0 lux 0 W/m² -3,5 °C
25.01.2023 21:15 -1,3 °C 2,6 °C -2,7 °C 85 % 89 % 1027,7 hPa 0,00 l/m² 5,4 km/h (1 Bft) S-SO±22.5 165 ° 0 min 0 lux 0 W/m² -3,5 °C
25.01.2023 21:30 -1,3 °C 2,6 °C -2,7 °C 85 % 89 % 1027,7 hPa 0,00 l/m² 6,3 km/h (2 Bft) S±22.5° 180 ° 0 min 0 lux 0 W/m² -3,5 °C
25.01.2023 21:45 -1,3 °C 2,6 °C -2,8 °C 85 % 89 % 1027,7 hPa 0,00 l/m² 4,0 km/h (1 Bft) W-SW±45° 240 ° 0 min 0 lux 0 W/m² -3,5 °C
25.01.2023 22:00 -1,3 °C 2,6 °C -2,7 °C 85 % 89 % 1027,7 hPa 0,00 l/m² 3,8 km/h (1 Bft) S-SW±22.5 195 ° 0 min 0 lux 0 W/m² -3,5 °C
25.01.2023 22:15 -1,3 °C 2,6 °C -2,8 °C 85 % 89 % 1027,7 hPa 0,00 l/m² 6,1 km/h (2 Bft) W±67.5° 275 ° 0 min 0 lux 0 W/m² -3,5 °C
25.01.2023 22:30 -1,3 °C 2,6 °C -2,8 °C 85 % 90 % 1027,7 hPa 0,00 l/m² 7,1 km/h (2 Bft) W-NW±22.5 285 ° 0 min 0 lux 0 W/m² -3,5 °C
25.01.2023 22:45 -1,4 °C 2,6 °C -2,9 °C 85 % 90 % 1026,7 hPa 0,00 l/m² 7,2 km/h (2 Bft) W±45° 275 ° 0 min 0 lux 0 W/m² -3,6 °C
25.01.2023 23:00 -1,4 °C 2,5 °C -3,0 °C 85 % 90 % 1026,7 hPa 0,00 l/m² 1,3 km/h (1 Bft) W-NW±22.5 300 ° 0 min 0 lux 0 W/m² -3,6 °C
25.01.2023 23:15 -1,3 °C 2,5 °C -2,9 °C 85 % 90 % 1026,7 hPa 0,00 l/m² 0,0 km/h (0 Bft) N-NW 330 ° 0 min 0 lux 0 W/m² -3,5 °C
25.01.2023 23:30 -1,2 °C 2,5 °C -2,8 °C 85 % 90 % 1026,7 hPa 0,00 l/m² 0,1 km/h (0 Bft) N-NW 330 ° 0 min 0 lux 0 W/m² -3,4 °C
25.01.2023 23:45 -1,2 °C 2,5 °C -2,7 °C 85 % 90 % 1026,7 hPa 0,00 l/m² 0,0 km/h (0 Bft) N-NW 330 ° 0 min 0 lux 0 W/m² -3,4 °C
_ Min-Zeit 07:00 06:15 07:30 09:00 01:15 23:30 - 23:15 - - - - - 05:30
Minimum _ -2,5 °C 2,5 °C -4,1 °C 85 % 57 % 1026,7 hPa - 0,0 km/h (0 Bft) - - - - - -4,4 °C
_ Max-Zeit 12:30 00:00 13:00 01:45 22:30 01:30 00:00 00:45 - - 00:00 13:15 13:15 12:30
Maximum _ 0,2 °C 3,5 °C -0,7 °C 87 % 90 % 1039,2 hPa 0,00 l/m² 29,7 km/h
O-NO (5 Bft)
- - 0 min 6,79 klux 44 W/m² -1,7 °C
Durchschnitt _ -1,3 °C 2,7 °C -2,7 °C 86 % 74 % 1033,7 hPa #0,00 l/m² 11,6 km/h (2 Bft) O-NO - #0 min. 1,36 klux 24 W/m² -3,4 °C